CAPE
0 0 0 0 0 0 0 0 0 0 0 0 0 0 0 0 0 0 0 0 0 0 0 0 0 0 0 0 0 214 1164 2517 1913 1856 1875 1375 1511 1175 1265 1047 882 559 373 262
0 0 0 0 0 0 0 0 0 0 0 0 0 0 0 0 0 0 0 0 0 0 0 0 0 0 0 0 0 256 794 1806 1735 1742 1715 1747 1402 1243 932 739 363 333 232 132
4 0 0 0 0 0 0 0 0 0 0 0 0 0 0 0 0 0 0 0 0 0 0 0 0 0 0 0 0 172 707 1490 1616 1691 1727 1610 1247 811 819 568 544 402 226 65
3 14 18 44 0 0 0 0 0 0 0 0 0 0 0 0 0 0 0 0 0 0 0 0 0 0 0 0 28 265 677 1516 1300 1694 1659 1550 807 577 639 615 417 122 15 5
0 0 57 86 28 0 0 1 0 0 0 0 0 0 0 0 0 0 0 0 0 0 0 0 0 0 0 0 44 426 749 1364 1375 1735 1562 1583 1188 1015 662 586 499 179 6 11
37 2 79 90 107 15 5 2 55 34 32 0 0 0 0 9 18 0 9 14 17 16 5 0 0 0 0 0 380 721 912 1183 1302 1485 1434 1379 1136 809 394 609 615 184 43 5
85 26 60 77 66 55 27 69 0 0 0 0 8 0 0 67 92 27 25 24 29 33 52 18 2 0 0 0 541 921 939 1146 1229 1265 1235 1147 878 594 382 361 378 8 5 4
82 5 103 83 100 73 6 41 0 0 0 0 34 0 10 140 78 26 34 41 39 16 155 256 125 122 100 239 783 447 954 1039 1136 1136 1045 753 557 342 354 347 50 0 0 3
155 81 60 136 78 77 8 0 31 40 24 0 8 27 186 108 32 14 29 34 12 2 6 483 315 182 500 771 352 181 907 1028 945 830 764 448 332 316 325 107 0 6 0 0
254 91 86 63 53 67 43 56 0 55 0 0 0 0 168 82 19 5 9 17 2 1 3 6 531 225 707 625 172 306 652 843 561 455 426 272 385 224 175 49 0 0 0 0
3 291 154 107 70 30 15 82 67 87 88 0 0 89 157 2 0 0 0 4 3 0 0 25 88 595 777 691 134 306 470 679 455 269 180 282 168 92 129 79 3 0 0 0
1 201 158 41 47 31 65 80 122 0 2 48 70 38 5 11 0 1 7 0 7 0 0 14 318 353 497 461 183 109 567 547 367 229 328 448 154 60 41 24 0 2 0 5
0 149 210 83 122 130 88 93 83 59 46 66 0 55 88 0 0 13 19 15 15 0 0 35 112 247 389 244 243 127 356 389 219 161 242 235 129 59 19 5 4 0 0 3
0 0 60 43 99 118 40 40 55 64 50 20 71 31 2 0 10 11 41 8 11 0 0 1 90 86 32 27 10 135 395 282 254 115 117 160 109 133 69 70 57 5 3 11
4 237 39 56 52 86 85 59 65 22 16 0 2 0 6 30 22 42 16 0 0 1 0 6 191 88 34 33 12 28 397 421 125 65 158 127 78 71 109 83 53 41 53 7
0 29 6 0 0 0 0 0 0 2 0 0 0 4 21 13 19 4 0 0 0 0 0 3 185 247 54 39 68 329 537 243 40 73 49 58 41 23 32 53 36 0 0 29
0 0 6 0 0 0 0 0 0 0 22 9 0 0 2 0 0 0 0 0 0 0 0 0 38 24 273 170 202 284 471 124 55 33 67 10 11 3 4 2 5 3 1 4
0 0 1 0 0 0 6 27 18 38 4 0 0 0 0 0 0 0 0 0 0 0 0 0 1 2 133 61 243 246 338 113 58 52 48 6 9 21 4 10 7 7 4 6
0 0 0 1 11 0 41 16 13 28 3 0 0 0 0 0 0 0 0 0 0 0 0 0 0 0 0 42 228 263 177 111 53 54 26 5 4 3 3 20 15 3 5 24
0 2 1 1 4 2 0 0 7 19 0 0 0 0 0 0 0 0 0 0 0 7 0 0 0 0 25 6 160 151 80 9 29 46 14 62 56 6 17 36 64 20 8 4
25 0 12 0 0 17 0 0 0 38 0 0 0 0 0 0 0 0 2 0 2 0 0 0 0 0 0 0 16 5 0 22 2 22 31 63 70 120 114 100 109 130 122 174
21 18 37 25 27 37 0 0 0 0 0 0 0 0 0 0 0 0 0 0 0 0 0 0 0 0 0 0 0 5 5 3 0 5 15 22 1 33 62 62 81 79 86 51
26 0 0 0 0 0 0 0 0 0 0 0 0 0 0 0 0 0 0 0 0 0 0 0 0 0 0 0 0 0 0 0 0 0 0 0 0 3 0 0 2 0 0 0
0 0 0 0 0 0 0 0 0 0 0 0 0 0 0 0 0 0 0 0 0 0 0 0 0 0 0 0 0 0 0 0 0 0 0 0 0 0 0 0 0 0 0 0
0 0 0 0 0 0 0 0 0 0 0 0 0 0 0 0 0 0 0 0 0 0 0 0 0 0 0 0 0 0 0 0 0 0 0 0 0 0 0 0 0 0 0 0
0 0 0 0 0 0 0 0 0 0 0 0 0 0 0 0 0 0 0 0 0 0 0 0 0 0 0 0 0 0 0 0 0 0 0 4 10 3 0 1 9 5 0 0
CIN
-0 -0 -0 -0 -0 -0 -0 -0 -0 -0 -0 -0 -0 -0 -0 -0 -0 -0 -0 -0 -0 -0 -0 -0 -0 -0 -0 -0 -0 -46 -41 -24 -111 -100 -81 -129 -81 -103 -69 -58 -43 -34 -13 -4
-0 -0 -0 -0 -0 -0 -0 -0 -0 -0 -0 -0 -0 -0 -0 -0 -0 -0 -0 -0 -0 -0 -0 -0 -0 -0 -0 -0 -0 -58 -53 -27 -134 -113 -88 -40 -67 -57 -90 -79 -122 -74 -41 -20
-0 -0 -0 -0 -0 -0 -0 -0 -0 -0 -0 -0 -0 -0 -0 -0 -0 -0 -0 -0 -0 -0 -0 -0 -0 -0 -0 -0 -0 -71 -49 -38 -133 -104 -51 -29 -55 -116 -89 -108 -64 -66 -36 -43
-0 -0 -0 -0 -0 -0 -0 -0 -0 -0 -0 -0 -0 -0 -0 -0 -0 -0 -0 -0 -0 -0 -0 -0 -0 -0 -0 -0 -131 -45 -43 -20 -158 -73 -36 -42 -156 -166 -126 -76 -71 -101 -100 -17
-0 -0 -0 -1 -1 -0 -0 -0 -0 -0 -0 -0 -0 -0 -0 -0 -0 -0 -0 -0 -0 -0 -0 -0 -0 -0 -0 -0 -112 -45 -46 -20 -112 -63 -35 -42 -71 -50 -79 -73 -43 -50 -0 -6
-0 -0 -2 -0 -0 -1 -1 -0 -0 -18 -14 -0 -0 -0 -0 -0 -3 -0 -19 -71 -0 -0 -0 -0 -0 -0 -0 -0 -51 -53 -62 -49 -74 -69 -58 -53 -54 -48 -81 -43 -13 -35 -43 -0
-0 -0 -51 -1 -1 -0 -1 -0 -0 -0 -0 -0 -0 -0 -0 -9 -23 -37 -9 -0 -0 -1 -77 -147 -38 -0 -0 -0 -42 -67 -88 -50 -61 -82 -85 -73 -77 -88 -93 -52 -17 -34 -0 -0
-1 -0 -3 -1 -0 -0 -0 -1 -0 -0 -0 -0 -0 -0 -2 -4 -15 -8 -1 -0 -0 -0 -16 -12 -67 -78 -71 -41 -109 -217 -80 -52 -60 -80 -91 -104 -119 -150 -83 -57 -137 -0 -0 -7
-0 -0 -2 -0 -0 -0 -0 -0 -0 -0 -1 -0 -4 -1 -0 -9 -14 -1 -1 -0 -0 -0 -13 -1 -34 -50 -39 -65 -251 -328 -97 -59 -91 -109 -119 -171 -182 -138 -96 -157 -0 -0 -0 -0
-8 -2 -19 -1 -0 -1 -2 -0 -0 -0 -0 -0 -0 -0 -3 -0 -3 -0 -0 -0 -0 -0 -0 -44 -32 -33 -10 -153 -299 -302 -151 -90 -146 -162 -173 -222 -157 -184 -153 -214 -0 -0 -0 -0
-29 -0 -0 -1 -0 -0 -0 -0 -1 -0 -0 -0 -0 -2 -1 -11 -0 -0 -0 -0 -0 -0 -0 -34 -79 -18 -5 -121 -366 -272 -160 -105 -154 -186 -104 -202 -238 -253 -170 -168 -0 -0 -0 -0
-7 -0 -0 -13 -6 -0 -0 -0 -0 -0 -0 -0 -7 -0 -2 -0 -0 -0 -0 -0 -0 -0 -0 -37 -78 -81 -73 -166 -262 -304 -111 -137 -171 -103 -157 -109 -213 -290 -252 -0 -0 -0 -0 -0
-3 -1 -0 -1 -0 -1 -0 -1 -1 -3 -7 -2 -0 -2 -0 -0 -0 -0 -0 -0 -0 -0 -0 -88 -100 -92 -100 -172 -175 -217 -135 -153 -142 -157 -162 -145 -199 -288 -300 -45 -6 -0 -0 -31
-0 -6 -7 -5 -0 -0 -1 -0 -1 -0 -0 -0 -0 -6 -1 -0 -0 -0 -0 -0 -0 -0 -0 -0 -63 -111 -202 -221 -109 -158 -98 -113 -116 -192 -199 -158 -190 -166 -213 -161 -115 -0 -13 -16
-4 -0 -1 -1 -6 -0 -0 -1 -0 -1 -5 -0 -0 -0 -0 -0 -0 -0 -0 -0 -0 -0 -0 -22 -20 -74 -157 -161 -202 -145 -65 -52 -125 -140 -121 -137 -189 -188 -143 -158 -153 -100 -14 -0
-0 -2 -0 -0 -0 -0 -0 -0 -0 -0 -0 -0 -0 -0 -0 -0 -0 -0 -0 -0 -0 -0 -0 -0 -1 -7 -73 -105 -100 -81 -38 -49 -46 -146 -158 -145 -196 -31 -210 -165 -11 -0 -0 -0
-0 -0 -0 -0 -0 -0 -0 -0 -0 -0 -1 -5 -0 -0 -0 -0 -0 -0 -0 -0 -0 -0 -0 -0 -5 -21 -2 -22 -37 -14 -15 -75 -42 -56 -138 -0 -0 -0 -0 -0 -0 -0 -0 -0
-19 -6 -2 -0 -0 -0 -0 -0 -0 -0 -2 -0 -0 -0 -0 -0 -0 -0 -0 -0 -0 -0 -0 -0 -0 -18 -1 -0 -0 -3 -1 -43 -30 -118 -109 -0 -127 -54 -0 -0 -0 -0 -0 -0
-0 -0 -0 -2 -0 -0 -11 -0 -0 -0 -0 -0 -0 -0 -0 -0 -0 -0 -0 -0 -0 -0 -0 -0 -0 -0 -1 -7 -0 -0 -0 -7 -22 -56 -71 -0 -0 -0 -0 -0 -0 -0 -0 -0
-1 -0 -29 -6 -0 -2 -0 -0 -0 -0 -0 -0 -0 -0 -0 -0 -0 -0 -0 -0 -0 -0 -0 -0 -0 -0 -0 -15 -0 -0 -6 -7 -7 -0 -0 -2 -7 -44 -50 -23 -16 -44 -0 -0
-4 -0 -11 -0 -0 -11 -0 -0 -0 -4 -0 -0 -0 -0 -0 -0 -0 -0 -1 -0 -0 -0 -0 -0 -0 -0 -0 -0 -14 -0 -0 -0 -0 -1 -0 -0 -0 -0 -0 -0 -1 -0 -0 -4
-2 -5 -8 -0 -7 -2 -0 -0 -0 -0 -0 -0 -0 -0 -0 -0 -0 -0 -0 -0 -0 -0 -0 -0 -0 -0 -0 -0 -0 -10 -1 -5 -0 -11 -0 -11 -31 -1 -1 -0 -0 -1 -3 -0
-8 -0 -0 -0 -0 -0 -0 -0 -0 -0 -0 -0 -0 -0 -0 -0 -0 -0 -0 -0 -0 -0 -0 -0 -0 -0 -0 -0 -0 -0 -0 -0 -0 -0 -0 -0 -0 -0 -0 -0 -6 -0 -0 -0
-0 -0 -0 -0 -0 -0 -0 -0 -0 -0 -0 -0 -0 -0 -0 -0 -0 -0 -0 -0 -0 -0 -0 -0 -0 -0 -0 -0 -0 -0 -0 -0 -0 -0 -0 -0 -0 -0 -0 -0 -0 -0 -0 -0
-0 -0 -0 -0 -0 -0 -0 -0 -0 -0 -0 -0 -0 -0 -0 -0 -0 -0 -0 -0 -0 -0 -0 -0 -0 -0 -0 -0 -0 -0 -0 -0 -0 -0 -0 -0 -0 -0 -0 -0 -0 -0 -0 -0
-0 -0 -0 -0 -0 -0 -0 -0 -0 -0 -0 -0 -0 -0 -0 -0 -0 -0 -0 -0 -0 -0 -0 -0 -0 -0 -0 -0 -0 -0 -0 -0 -0 -0 -0 -1 -1 -1 -0 -0 -2 -1 -0 -0
Wind_Speed
nan nan nan nan nan nan nan nan nan nan nan nan nan nan nan nan nan nan nan nan nan nan nan nan nan nan nan nan nan 34 34 42 32 31 29 32 29 29 27 26 27 30 26 22
nan nan nan nan nan nan nan nan nan nan nan nan nan nan nan nan nan nan nan nan nan nan nan nan nan nan nan nan nan 31 37 40 26 29 26 31 28 27 26 27 29 29 24 23
nan nan nan nan nan nan nan nan nan nan nan nan nan nan nan nan nan nan nan nan nan nan nan nan nan nan nan nan nan 29 33 36 24 25 27 29 27 29 25 28 27 25 23 nan
nan nan nan nan nan nan nan nan nan nan nan nan nan nan nan nan nan nan nan nan nan nan nan nan nan nan nan nan nan 32 30 36 22 22 26 29 28 24 25 26 25 24 nan nan
nan nan nan nan nan nan nan nan nan nan nan nan nan nan nan nan nan nan nan nan nan nan nan nan nan nan nan nan nan 30 28 29 22 21 20 27 23 23 27 24 25 26 nan nan
nan nan nan nan 15 nan nan nan nan nan nan nan nan nan nan nan nan nan nan nan nan nan nan nan nan nan nan nan 37 30 25 21 22 19 18 23 22 21 23 23 24 24 nan nan
nan nan nan nan nan nan nan nan nan nan nan nan nan nan nan nan nan nan nan nan nan nan nan nan nan nan nan nan 32 31 21 19 20 17 19 21 21 21 21 21 23 nan nan nan
nan nan 18 nan 28 nan nan nan nan nan nan nan nan nan nan 50 nan nan nan nan nan nan 42 38 30 25 24 28 33 25 17 21 18 20 19 19 22 21 18 24 nan nan nan nan
8 nan nan 29 nan nan nan nan nan nan nan nan nan nan 26 24 nan nan nan nan nan nan nan 36 26 20 21 30 30 20 16 19 23 18 17 20 21 18 20 22 nan nan nan nan
22 nan nan nan nan nan nan nan nan nan nan nan nan nan 30 nan nan nan nan nan nan nan nan nan 29 26 25 32 27 20 15 23 24 15 17 21 18 18 20 nan nan nan nan nan
nan 21 20 24 nan nan nan nan nan nan nan nan nan nan 37 nan nan nan nan nan nan nan nan nan nan 37 28 32 25 21 12 26 26 15 16 20 19 nan 20 nan nan nan nan nan
nan 23 13 nan nan nan nan nan 10 nan nan nan nan nan nan nan nan nan nan nan nan nan nan nan 42 39 42 34 28 24 20 34 29 17 18 19 20 nan nan nan nan nan nan nan
nan 17 12 nan 13 13 nan nan nan nan nan nan nan nan nan nan nan nan nan nan nan nan nan nan 44 45 41 36 31 31 28 34 24 19 17 18 18 nan nan nan nan nan nan nan
nan nan nan nan nan 16 nan nan nan nan nan nan nan nan nan nan nan nan nan nan nan nan nan nan nan nan nan nan nan 36 26 24 25 20 17 17 18 21 nan nan nan nan nan nan
nan 21 nan nan nan nan nan nan nan nan nan nan nan nan nan nan nan nan nan nan nan nan nan nan 41 nan nan nan nan nan 30 25 26 nan 17 20 nan nan 21 nan nan nan nan nan
nan nan nan nan nan nan nan nan nan nan nan nan nan nan nan nan nan nan nan nan nan nan nan nan 44 47 nan nan nan 47 41 32 nan nan nan nan nan nan nan nan nan nan nan nan
nan nan nan nan nan nan nan nan nan nan nan nan nan nan nan nan nan nan nan nan nan nan nan nan nan nan 46 52 47 52 47 39 nan nan nan nan nan nan nan nan nan nan nan nan
nan nan nan nan nan nan nan nan nan nan nan nan nan nan nan nan nan nan nan nan nan nan nan nan nan nan 45 nan 50 45 43 45 nan nan nan nan nan nan nan nan nan nan nan nan
nan nan nan nan nan nan nan nan nan nan nan nan nan nan nan nan nan nan nan nan nan nan nan nan nan nan nan nan 50 51 52 55 nan nan nan nan nan nan nan nan nan nan nan nan
nan nan nan nan nan nan nan nan nan nan nan nan nan nan nan nan nan nan nan nan nan nan nan nan nan nan nan nan 53 52 nan nan nan nan nan nan nan nan nan nan nan nan nan nan
nan nan nan nan nan nan nan nan nan nan nan nan nan nan nan nan nan nan nan nan nan nan nan nan nan nan nan nan nan nan nan nan nan nan nan nan nan 52 55 58 56 55 50 48
nan nan nan nan nan nan nan nan nan nan nan nan nan nan nan nan nan nan nan nan nan nan nan nan nan nan nan nan nan nan nan nan nan nan nan nan nan nan nan nan nan nan nan nan
nan nan nan nan nan nan nan nan nan nan nan nan nan nan nan nan nan nan nan nan nan nan nan nan nan nan nan nan nan nan nan nan nan nan nan nan nan nan nan nan nan nan nan nan
nan nan nan nan nan nan nan nan nan nan nan nan nan nan nan nan nan nan nan nan nan nan nan nan nan nan nan nan nan nan nan nan nan nan nan nan nan nan nan nan nan nan nan nan
nan nan nan nan nan nan nan nan nan nan nan nan nan nan nan nan nan nan nan nan nan nan nan nan nan nan nan nan nan nan nan nan nan nan nan nan nan nan nan nan nan nan nan nan
nan nan nan nan nan nan nan nan nan nan nan nan nan nan nan nan nan nan nan nan nan nan nan nan nan nan nan nan nan nan nan nan nan nan nan nan nan nan nan nan nan nan nan nan
Wind_Direction
nan nan nan nan nan nan nan nan nan nan nan nan nan nan nan nan nan nan nan nan nan nan nan nan nan nan nan nan nan 303 309 306 283 285 285 283 288 293 299 283 291 291 286 275
nan nan nan nan nan nan nan nan nan nan nan nan nan nan nan nan nan nan nan nan nan nan nan nan nan nan nan nan nan 303 311 309 288 281 280 282 288 303 292 286 287 292 287 272
nan nan nan nan nan nan nan nan nan nan nan nan nan nan nan nan nan nan nan nan nan nan nan nan nan nan nan nan nan 304 304 299 282 288 274 278 288 285 283 286 289 293 287 nan
nan nan nan nan nan nan nan nan nan nan nan nan nan nan nan nan nan nan nan nan nan nan nan nan nan nan nan nan nan 303 295 289 277 290 284 299 299 290 288 286 291 283 nan nan
nan nan nan nan nan nan nan nan nan nan nan nan nan nan nan nan nan nan nan nan nan nan nan nan nan nan nan nan nan 292 277 278 277 282 289 296 308 295 286 286 300 294 nan nan
nan nan nan nan 250 nan nan nan nan nan nan nan nan nan nan nan nan nan nan nan nan nan nan nan nan nan nan nan 294 276 266 271 277 278 303 304 300 284 277 291 290 282 nan nan
nan nan nan nan nan nan nan nan nan nan nan nan nan nan nan nan nan nan nan nan nan nan nan nan nan nan nan nan 275 265 263 274 272 293 298 300 290 287 284 295 286 nan nan nan
nan nan 230 nan 226 nan nan nan nan nan nan nan nan nan nan 243 nan nan nan nan nan nan 226 236 245 264 274 271 259 252 264 263 281 282 291 281 277 273 283 286 nan nan nan nan
166 nan nan 261 nan nan nan nan nan nan nan nan nan nan 245 264 nan nan nan nan nan nan nan 228 223 254 254 256 250 238 245 266 280 294 278 273 274 284 277 280 nan nan nan nan
186 nan nan nan nan nan nan nan nan nan nan nan nan nan 253 nan nan nan nan nan nan nan nan nan 208 227 235 252 246 234 231 264 276 288 268 266 274 274 270 nan nan nan nan nan
nan 177 264 263 nan nan nan nan nan nan nan nan nan nan 248 nan nan nan nan nan nan nan nan nan nan 200 230 248 241 247 253 267 265 280 258 266 275 nan 279 nan nan nan nan nan
nan 185 208 nan nan nan nan nan 241 nan nan nan nan nan nan nan nan nan nan nan nan nan nan nan 204 200 219 228 234 241 239 258 254 271 254 263 273 nan nan nan nan nan nan nan
nan 170 210 nan 216 215 nan nan nan nan nan nan nan nan nan nan nan nan nan nan nan nan nan nan 208 206 207 220 224 238 243 247 249 257 250 264 273 nan nan nan nan nan nan nan
nan nan nan nan nan 240 nan nan nan nan nan nan nan nan nan nan nan nan nan nan nan nan nan nan nan nan nan nan nan 235 230 237 240 252 252 263 270 268 nan nan nan nan nan nan
nan 166 nan nan nan nan nan nan nan nan nan nan nan nan nan nan nan nan nan nan nan nan nan nan 213 nan nan nan nan nan 233 231 238 nan 245 256 nan nan 265 nan nan nan nan nan
nan nan nan nan nan nan nan nan nan nan nan nan nan nan nan nan nan nan nan nan nan nan nan nan 216 211 nan nan nan 217 217 228 nan nan nan nan nan nan nan nan nan nan nan nan
nan nan nan nan nan nan nan nan nan nan nan nan nan nan nan nan nan nan nan nan nan nan nan nan nan nan 214 220 219 219 209 220 nan nan nan nan nan nan nan nan nan nan nan nan
nan nan nan nan nan nan nan nan nan nan nan nan nan nan nan nan nan nan nan nan nan nan nan nan nan nan 221 nan 210 211 207 221 nan nan nan nan nan nan nan nan nan nan nan nan
nan nan nan nan nan nan nan nan nan nan nan nan nan nan nan nan nan nan nan nan nan nan nan nan nan nan nan nan 209 219 217 222 nan nan nan nan nan nan nan nan nan nan nan nan
nan nan nan nan nan nan nan nan nan nan nan nan nan nan nan nan nan nan nan nan nan nan nan nan nan nan nan nan 212 224 nan nan nan nan nan nan nan nan nan nan nan nan nan nan
nan nan nan nan nan nan nan nan nan nan nan nan nan nan nan nan nan nan nan nan nan nan nan nan nan nan nan nan nan nan nan nan nan nan nan nan nan 260 252 240 242 241 240 240
nan nan nan nan nan nan nan nan nan nan nan nan nan nan nan nan nan nan nan nan nan nan nan nan nan nan nan nan nan nan nan nan nan nan nan nan nan nan nan nan nan nan nan nan
nan nan nan nan nan nan nan nan nan nan nan nan nan nan nan nan nan nan nan nan nan nan nan nan nan nan nan nan nan nan nan nan nan nan nan nan nan nan nan nan nan nan nan nan
nan nan nan nan nan nan nan nan nan nan nan nan nan nan nan nan nan nan nan nan nan nan nan nan nan nan nan nan nan nan nan nan nan nan nan nan nan nan nan nan nan nan nan nan
nan nan nan nan nan nan nan nan nan nan nan nan nan nan nan nan nan nan nan nan nan nan nan nan nan nan nan nan nan nan nan nan nan nan nan nan nan nan nan nan nan nan nan nan
nan nan nan nan nan nan nan nan nan nan nan nan nan nan nan nan nan nan nan nan nan nan nan nan nan nan nan nan nan nan nan nan nan nan nan nan nan nan nan nan nan nan nan nan